STARLINK-3768, 52301

Orbit data source: Space-Track

STARLINK-3768, 52301 is a payload satellite owned by SpaceX/Seattle (US) in LEO that was launched on Thu, 21 Apr 2022 UTC via an FALCON 9 launch vehicle from the Air Force Eastern Test Range (AFETR). Payload-class satellites include a variety of spacecraft equipped with specific instruments for various scientific and technological missions. These include communications satellites like Starlink; space stations such as the ISS; scientific satellites like the Hubble; Earth observation satellites from companies like Planet Labs, Umbra, and HawkEye 360; GPS; miniature CubeSats for education and research; and military/defense satellites.

Loading next visibility...
Identifier
52301, 2022-041AS
Orbit
LEO
Country
Flag of USUS
Related business
Manufacturer
SpaceX/Seattle
Mission
Operational Commercial Communications
Bus & Motor
STARLINK, Unknown motor
Mass
297 kg wet, ~275 kg dry
Launch date (UTC)
2022-04-21 (4 years ago)
Launch vehicle
FALCON 9
Launch site
Air Force Eastern Test Range (AFETR)
Object type
Payload
Rocket body
Debris
Shape & HBR
Box + 1 Pan, 10.1 m
Radar Cross Section
11.087 m², Large (>1 m²)

Expand to show TLE details & history
Last TLE update: 16 hours ago

TLE from 16 hours ago
0 STARLINK-3768
1 52301U 22041AS  26129.88187736  .00000394  00000-0  42810-4 0  9993
2 52301  53.2165 184.4161 0001089  79.2339 280.8775 15.08839274223743
Epoch: 2026-05-09T21:09Z
TLE epoch observation values (Epoch: 2026-05-09T21:09:54.203Z)
Latitude
-0.0001°
Longitude
-0.75276°
Altitude
540.501 km
Speed
7.593 km/s
True Right ascension
12h 17m 39s
True Declination
0° 00' 00"
Sunlit
Object was in full shadow at epoch
Visualization orbit readout
Latitude
Unknown
Longitude
Unknown
Altitude
Unknown
Speed
Unknown
Apparent Right ascension
Unknown
Apparent Declination
Unknown
Sunlit
N/A
Visualization observer readout
Local Sidereal Time
21:22:15
Azimuth
Unknown
Elevation
Unknown
Doppler factor
Unknown
Orbital elements
Apogee altitude
540.744 km
Perigee altitude
539.237 km
Semi-major axis
6,918.128 km
Eccentricity
0.00011
Inclination
53.2165°
RAAN
184.4161°
Arg. of periapsis
79.2339°
True anomaly
280.86524°
Mean anomaly
280.8775°
Eccentric anomaly
280.87137°
Mean motion
3.7719 °/min
Orbital period
95.44 mins
BSTAR
0.00004281
Loading maneuver chart data...
Computing Atmospheric mass density...
Loading historical data...
Loading historical data...
Loading historical data...
Loading historical data...
Loading historical data...
Loading historical data...
Loading historical data...

Documentation

Showing up to 5 results
|